Regional Weather Roundup
Issued by NWS Portland, ME

Current Version | Previous Version | Text Only | Print | Product List | Glossary Off
Versions: 1 2 3 4 5 6 7 8 9 10 11 12 13 14 15 16 17 18 19 20 21 22 23 24 25 26 27 28 29 30 31 32 33 34 35 36 37 38 39 40 41 42 43 44 45 46 47 48 49 50
000 ASUS41 KGYX 191810 RWRGYX WEATHER ROUNDUP FOR MAINE AND NEW HAMPSHIRE NATIONAL WEATHER SERVICE GRAY ME 200 PM EDT THU OCT 19 2017 MEZ002-005-006-010-012-015-018-020-021-024-026-027-029-191900- MAINE CITY SKY/WX TMP DP RH WIND PRES REMARKS PORTLAND FAIR 65 52 62 S14 30.04F 6HR MIN TEMP: 42; 6HR MAX TEMP: 66; SANFORD FAIR 72 47 40 S9G18 30.04F BAR HARBOR FAIR 61 55 81 S20G26 30.07F WISCASSET FAIR 67 51 56 S12G20 30.05F 6HR MIN TEMP: 42; 6HR MAX TEMP: 67; ROCKLAND FAIR 60 55 83 S12 30.07F FRYEBURG FAIR 72 47 40 S9 30.01F 6HR MIN TEMP: 35; 6HR MAX TEMP: 72; LEWISTONAUBURN FAIR 72 45 37 S15 30.00F AUGUSTA FAIR 69 47 45 S10G25 30.01F 6HR MIN TEMP: 45; 6HR MAX TEMP: 69; WATERVILLE FAIR 69 49 48 S8 29.97F BANGOR FAIR 68 52 56 S14 30.01F 6HR MIN TEMP: 49; 6HR MAX TEMP: 69; GREENVILLE N/A 65 44 46 S10G21 29.93F 6HR MIN TEMP: 45; 6HR MAX TEMP: 66; MILLINOCKET FAIR 70 46 42 SW8 29.96F 6HR MIN TEMP: 35; 6HR MAX TEMP: 70; HOULTON FAIR 70 44 39 S13G28 29.94F 6HR MIN TEMP: 48; 6HR MAX TEMP: 70; PRESQUE ISLE FAIR 69 45 41 S22G28 29.89F 6HR MIN TEMP: 39; 6HR MAX TEMP: 69; FRENCHVILLE FAIR 67 38 34 S17G29 29.84F 6HR MIN TEMP: 41; 6HR MAX TEMP: 67; CARIBOU FAIR 69 42 37 S16G30 29.87F 6HR MIN TEMP: 42; 6HR MAX TEMP: 69; $$ NHZ002-005-008-009-011-012-014-191900- NEW HAMPSHIRE CITY SKY/WX TMP DP RH WIND PRES REMARKS PORTSMOUTH MOSUNNY 74 44 34 SW14G23 30.03F ROCHESTER FAIR 73 45 36 VRB5 30.04F 6HR MIN TEMP: 42; 6HR MAX TEMP: 73; NASHUA FAIR 73 43 33 SW9G16 30.07F MANCHESTER FAIR 74 39 28 S15 30.04F 6HR MIN TEMP: 43; 6HR MAX TEMP: 74; CONCORD FAIR 75 43 31 SW9G18 30.04F 6HR MIN TEMP: 36; 6HR MAX TEMP: 75; LACONIA FAIR 71 45 39 W10 30.02F PLYMOUTH FAIR 71 43 37 S3 30.00F BERLIN FAIR 74 34 23 SW12G26 29.96F 6HR MIN TEMP: 30; 6HR MAX TEMP: 74; WHITEFIELD FAIR 72 36 26 SW15G25 29.97F 6HR MIN TEMP: 32; 6HR MAX TEMP: 73; JAFFREY FAIR 70 43 37 SW10G22 30.08F 6HR MIN TEMP: 43; 6HR MAX TEMP: 70; KEENE FAIR 73 41 31 SW13 30.04F LEBANON FAIR 74 43 32 SW14 29.99F 6HR MIN TEMP: 37; 6HR MAX TEMP: 74; MT WASHINGTON MOSUNNY 46 28 49 W39G54 N/A 6HR MIN TEMP: 40; 6HR MAX TEMP: 47; $$ VTZ005-007-008-191900- VERMONT CITY SKY/WX TMP DP RH WIND PRES REMARKS ST JOHNSBURY N/A 70 43 37 MISG 29.93F MONTPELIER FAIR 70 35 27 S16G25 29.99F BURLINGTON PTSUNNY 68 44 42 S16G26 29.93F $$ MAZ007-012-024-CTZ003-RIZ002-NYZ038-NYZ072-191900- SOUTHERN NEW ENGLAND AND NY CITY SKY/WX TMP DP RH WIND PRES REMARKS BOSTON FAIR 74 46 36 S15 30.08F WORCESTER FAIR 69 37 30 SW18G25 30.11F NANTUCKET FAIR 65 60 84 SW16 30.19F PROVIDENCE FAIR 72 48 42 SW20 30.14F HARTFORD FAIR 73 41 31 S16 30.10F ALBANY PTSUNNY 69 43 38 S13 30.04F NEW YORK CITY FAIR 70 39 32 SW16 30.15F $$ ANZ081-ANZ082-ANZ150-NHZ014-MEZ023>029-191900- COASTAL MARINE OBSERVATIONS STATION/POSITION TIME TEMP WIND PRES WAVE AIR SEA DIR/SP/G HT/PER (UTC) (F) (DEG/KT/KT) (MB) (FT/S) MOUNT DESERT ROC 1800 57 170/ 23/ 25 1019.2F MATINICUS ROCK 1700 56 200/ 22/ 24 1019.4F ISLE OF SHOALS 1700 62 180/ 15/ 15 1018.7F JEFFREYS LEDGE 1736 59 N/A 3/ 4 CASHES LEDGE BUO 1650 61 56 1020.3 3/ 4 GEORGES BANK BUO 1650 64 62 1023.8 3/ 9 $$ .............KEY.............. WCI - WIND CHILL TC - TEMPERATURE IN CELSIUS VSB - VISIBILITY IN MILES HX - HEAT INDEX FAIR- INDICATES FEW OR NO CLOUDS BELOW 12,000 FT, WITH NO SIGNIFICANT WEATHER AND/OR OBSTRUCTIONS TO VISIBILITY.

USA.gov is the U.S. government's official web portal to all federal, state and local government web resources and services.